ITY125 LICR-LIEO

Flight info

Callsign ITY125
Flight time 1h 7m
Altitude 32000
Route PAZZE DCT TADIX DCT DORAS DCT RUVIP DCT SUKUN
Aircraft MD88/M-SDFGIRWY/S

Departure

Time 2026-04-21 11:22
Airport Reggio Calabria Airport (LICR)

Arrival

Time 2026-04-21 12:29
Airport Olbia Costa Smeralda Airport (LIEO)
Time Latitude Longitude Altitude Speed Heading
2026-04-21 11:10 38.07420 15.65148 82 ft 0 kts 198°
2026-04-21 11:19 38.07414 15.65145 81 ft 3 kts 212°
2026-04-21 11:19 38.07408 15.65089 80 ft 9 kts 266°
2026-04-21 11:19 38.07399 15.65009 78 ft 11 kts 284°
2026-04-21 11:20 38.07463 15.64935 81 ft 14 kts 332°
2026-04-21 11:20 38.07559 15.64874 86 ft 17 kts 334°
2026-04-21 11:20 38.07680 15.64803 93 ft 20 kts 337°
2026-04-21 11:20 38.07827 15.64728 99 ft 23 kts 337°
2026-04-21 11:21 38.07919 15.64660 102 ft 3 kts 258°
2026-04-21 11:21 38.07898 15.64654 101 ft 5 kts 161°
2026-04-21 11:21 38.07690 15.64785 93 ft 69 kts 152°
2026-04-21 11:21 38.07051 15.65199 63 ft 134 kts 153°
2026-04-21 11:22 38.06115 15.65776 361 ft 156 kts 158°
2026-04-21 11:22 38.05100 15.66291 965 ft 162 kts 162°
2026-04-21 11:22 38.03997 15.66633 1519 ft 169 kts 176°
2026-04-21 11:22 38.02879 15.66153 1967 ft 179 kts 226°
2026-04-21 11:23 38.02152 15.64913 2641 ft 177 kts 237°
2026-04-21 11:23 38.01442 15.63564 3056 ft 196 kts 239°
2026-04-21 11:23 38.00637 15.62033 3650 ft 211 kts 239°
2026-04-21 11:23 37.99756 15.60685 4619 ft 208 kts 214°
2026-04-21 11:24 37.98376 15.59914 5210 ft 223 kts 206°
2026-04-21 11:24 37.96970 15.59175 6151 ft 220 kts 205°
2026-04-21 11:24 37.95564 15.58440 6943 ft 224 kts 205°
2026-04-21 11:24 37.94127 15.57691 7733 ft 226 kts 206°
2026-04-21 11:25 37.92677 15.56934 8515 ft 228 kts 207°
2026-04-21 11:25 37.91459 15.55621 8848 ft 245 kts 243°
2026-04-21 11:25 37.90989 15.53520 9242 ft 260 kts 272°
2026-04-21 11:25 37.91425 15.51303 9855 ft 271 kts 298°
2026-04-21 11:26 37.92685 15.49450 10199 ft 290 kts 322°
2026-04-21 11:26 37.94547 15.48204 10276 ft 317 kts 340°
2026-04-21 11:26 37.96800 15.47725 10414 ft 342 kts 358°
2026-04-21 11:26 37.99173 15.47832 11110 ft 343 kts 359°
2026-04-21 11:27 38.01580 15.47956 11713 ft 346 kts 359°
2026-04-21 11:27 38.03989 15.48080 12300 ft 348 kts 359°
2026-04-21 11:27 38.06422 15.48215 12941 ft 352 kts 359°
2026-04-21 11:27 38.08855 15.48353 13579 ft 354 kts 359°
2026-04-21 11:28 38.11340 15.48501 14142 ft 357 kts 359°
2026-04-21 11:28 38.13829 15.48659 14718 ft 360 kts 359°
2026-04-21 11:28 38.16322 15.48820 15260 ft 363 kts 360°
2026-04-21 11:28 38.18852 15.48991 15792 ft 365 kts 359°
2026-04-21 11:29 38.21370 15.49166 16363 ft 366 kts 359°
2026-04-21 11:29 38.23929 15.49349 16833 ft 370 kts 359°
2026-04-21 11:29 38.26500 15.49538 17400 ft 371 kts 360°
2026-04-21 11:29 38.29088 15.49734 17894 ft 375 kts 360°
2026-04-21 11:30 38.31683 15.49936 18430 ft 376 kts 360°
2026-04-21 11:30 38.34298 15.50143 18853 ft 380 kts 360°
2026-04-21 11:30 38.36962 15.50361 19343 ft 382 kts 360°
2026-04-21 11:30 38.39605 15.50582 19776 ft 385 kts 360°
2026-04-21 11:31 38.42277 15.50811 20280 ft 387 kts 360°
2026-04-21 11:31 38.44976 15.51047 20719 ft 389 kts 360°
2026-04-21 11:31 38.47666 15.51286 21122 ft 392 kts
2026-04-21 11:31 38.50406 15.51540 21579 ft 394 kts
2026-04-21 11:32 38.53099 15.51333 21914 ft 389 kts 342°
2026-04-21 11:32 38.55607 15.50103 22378 ft 384 kts 328°
2026-04-21 11:32 38.57728 15.48067 22747 ft 382 kts 313°
2026-04-21 11:32 38.59343 15.45392 23146 ft 382 kts 299°
2026-04-21 11:33 38.60350 15.42259 23550 ft 384 kts 285°
2026-04-21 11:33 38.60947 15.38955 23930 ft 385 kts 285°
2026-04-21 11:33 38.61577 15.35624 24283 ft 388 kts 285°
2026-04-21 11:33 38.62232 15.32278 24679 ft 389 kts 285°
2026-04-21 11:34 38.62909 15.28900 25022 ft 392 kts 285°
2026-04-21 11:34 38.63595 15.25537 25447 ft 392 kts 285°
2026-04-21 11:34 38.64288 15.22190 25746 ft 395 kts 286°
2026-04-21 11:34 38.64996 15.18804 26153 ft 396 kts 286°
2026-04-21 11:35 38.65719 15.15376 26553 ft 396 kts 286°
2026-04-21 11:35 38.66434 15.12010 27029 ft 394 kts 286°
2026-04-21 11:35 38.67154 15.08640 27544 ft 392 kts 286°
2026-04-21 11:35 38.67867 15.05318 27964 ft 392 kts 286°
2026-04-21 11:36 38.68591 15.01955 28441 ft 389 kts 287°
2026-04-21 11:36 38.69304 14.98651 28904 ft 388 kts 287°
2026-04-21 11:36 38.70023 14.95329 29322 ft 387 kts 287°
2026-04-21 11:36 38.70735 14.92045 29767 ft 385 kts 287°
2026-04-21 11:37 38.71450 14.88759 30170 ft 384 kts 287°
2026-04-21 11:37 38.72169 14.85462 30582 ft 383 kts 287°
2026-04-21 11:37 38.72875 14.82223 30997 ft 381 kts 287°
2026-04-21 11:37 38.73589 14.78957 31342 ft 381 kts 287°
2026-04-21 11:38 38.74297 14.75723 31717 ft 379 kts 287°
2026-04-21 11:38 38.75006 14.72488 31951 ft 381 kts 287°
2026-04-21 11:38 38.76472 14.65819 31943 ft 396 kts 287°
2026-04-21 11:39 38.77986 14.58946 31940 ft 408 kts 287°
2026-04-21 11:39 38.79510 14.52040 31938 ft 401 kts 287°
2026-04-21 11:40 38.81016 14.45240 31941 ft 397 kts 287°
2026-04-21 11:40 38.82557 14.38456 31938 ft 398 kts 291°
2026-04-21 11:41 38.85177 14.32232 31955 ft 399 kts 306°
2026-04-21 11:41 38.88598 14.26670 31950 ft 398 kts 307°
2026-04-21 11:42 38.92004 14.21036 31948 ft 399 kts 306°
2026-04-21 11:42 38.95368 14.15415 31949 ft 397 kts 306°
2026-04-21 11:43 38.98705 14.09808 31946 ft 397 kts 306°
2026-04-21 11:43 39.02034 14.04199 31943 ft 396 kts 306°
2026-04-21 11:44 39.05382 13.98553 31944 ft 397 kts 306°
2026-04-21 11:44 39.08727 13.92910 31946 ft 397 kts 306°
2026-04-21 11:45 39.12068 13.87275 31951 ft 397 kts 306°
2026-04-21 11:45 39.15395 13.81662 31949 ft 397 kts 306°
2026-04-21 11:46 39.18741 13.76023 31949 ft 398 kts 306°
2026-04-21 11:46 39.22103 13.70362 31948 ft 398 kts 306°
2026-04-21 11:47 39.25453 13.64724 31947 ft 398 kts 307°
2026-04-21 11:47 39.28817 13.59068 31946 ft 397 kts 307°
2026-04-21 11:48 39.32177 13.53423 31945 ft 397 kts 307°
2026-04-21 11:48 39.35529 13.47793 31947 ft 398 kts 307°
2026-04-21 11:49 39.38853 13.42114 31947 ft 398 kts 306°
2026-04-21 11:49 39.42186 13.36390 31941 ft 398 kts 306°
2026-04-21 11:50 39.45510 13.30677 31951 ft 399 kts 306°
2026-04-21 11:50 39.48822 13.24983 31948 ft 399 kts 306°
2026-04-21 11:51 39.52150 13.19263 31949 ft 400 kts 306°
2026-04-21 11:51 39.55503 13.13505 31948 ft 398 kts 306°
2026-04-21 11:52 39.58830 13.07807 31946 ft 399 kts 306°
2026-04-21 11:52 39.61637 13.01625 31946 ft 399 kts 295°
2026-04-21 11:53 39.63992 12.95134 31945 ft 399 kts 295°
2026-04-21 11:53 39.66342 12.88661 31943 ft 398 kts 295°
2026-04-21 11:54 39.68705 12.82155 31941 ft 398 kts 295°
2026-04-21 11:54 39.71055 12.75687 31935 ft 399 kts 296°
2026-04-21 11:55 39.73426 12.69168 31933 ft 399 kts 295°
2026-04-21 11:55 39.75795 12.62663 31933 ft 399 kts 296°
2026-04-21 11:56 39.77770 12.57253 31931 ft 399 kts 296°
2026-04-21 11:56 39.80532 12.49686 31932 ft 399 kts 296°
2026-04-21 11:57 39.82913 12.43181 31928 ft 398 kts 296°
2026-04-21 11:57 39.85292 12.36689 31926 ft 399 kts 296°
2026-04-21 11:58 39.87675 12.30193 31932 ft 399 kts 295°
2026-04-21 11:58 39.90054 12.23719 31930 ft 398 kts 295°
2026-04-21 11:59 39.92444 12.17229 31929 ft 396 kts 295°
2026-04-21 11:59 39.94806 12.10816 31926 ft 397 kts 295°
2026-04-21 12:00 39.97201 12.04320 31924 ft 396 kts 295°
2026-04-21 12:00 39.99519 11.97864 31922 ft 397 kts 295°
2026-04-21 12:01 40.01862 11.91325 31919 ft 398 kts 295°
2026-04-21 12:01 40.04188 11.84835 31917 ft 398 kts 295°
2026-04-21 12:02 40.07751 11.75127 31262 ft 391 kts 296°
2026-04-21 12:02 40.08942 11.71955 30737 ft 383 kts 296°
2026-04-21 12:03 40.10095 11.68871 30196 ft 376 kts 296°
2026-04-21 12:03 40.11227 11.65829 29676 ft 372 kts 296°
2026-04-21 12:03 40.12349 11.62810 29153 ft 375 kts 296°
2026-04-21 12:03 40.13496 11.59717 28651 ft 382 kts 296°
2026-04-21 12:04 40.14653 11.56589 28146 ft 388 kts 296°
2026-04-21 12:04 40.15832 11.53405 27625 ft 388 kts 296°
2026-04-21 12:04 40.16990 11.50271 27102 ft 386 kts 296°
2026-04-21 12:04 40.18151 11.47133 26577 ft 381 kts 296°
2026-04-21 12:05 40.19292 11.44048 26062 ft 377 kts 296°
2026-04-21 12:05 40.20418 11.41005 25558 ft 373 kts 296°
2026-04-21 12:05 40.21547 11.37956 25064 ft 371 kts 296°
2026-04-21 12:05 40.22666 11.34935 24576 ft 369 kts 296°
2026-04-21 12:06 40.23777 11.31934 24100 ft 367 kts 296°
2026-04-21 12:06 40.24879 11.28959 23634 ft 366 kts 296°
2026-04-21 12:06 40.25984 11.25981 23172 ft 364 kts 296°
2026-04-21 12:06 40.27084 11.23014 22714 ft 362 kts 296°
2026-04-21 12:07 40.28184 11.20052 22259 ft 359 kts 296°
2026-04-21 12:07 40.29261 11.17155 21810 ft 356 kts 296°
2026-04-21 12:07 40.30343 11.14246 21360 ft 355 kts 296°
2026-04-21 12:07 40.31414 11.11368 20921 ft 353 kts 296°
2026-04-21 12:08 40.32477 11.08513 20484 ft 350 kts 296°
2026-04-21 12:08 40.33551 11.05631 20044 ft 348 kts 296°
2026-04-21 12:08 40.34609 11.02795 19610 ft 346 kts 296°
2026-04-21 12:08 40.35649 11.00005 19184 ft 345 kts 296°
2026-04-21 12:09 40.36697 10.97195 18756 ft 344 kts 296°
2026-04-21 12:09 40.37746 10.94390 18329 ft 343 kts 296°
2026-04-21 12:09 40.38789 10.91596 17903 ft 341 kts 296°
2026-04-21 12:09 40.39830 10.88812 17479 ft 339 kts 297°
2026-04-21 12:10 40.40862 10.86054 17062 ft 337 kts 297°
2026-04-21 12:10 40.41891 10.83304 16646 ft 335 kts 297°
2026-04-21 12:10 40.42905 10.80570 16233 ft 333 kts 296°
2026-04-21 12:10 40.43887 10.77862 15825 ft 332 kts 296°
2026-04-21 12:11 40.44879 10.75115 15412 ft 330 kts 296°
2026-04-21 12:11 40.45847 10.72429 15007 ft 329 kts 296°
2026-04-21 12:11 40.46817 10.69728 14600 ft 327 kts 296°
2026-04-21 12:11 40.47784 10.67036 14196 ft 326 kts 296°
2026-04-21 12:12 40.48747 10.64349 13796 ft 325 kts 296°
2026-04-21 12:12 40.49699 10.61692 13410 ft 324 kts 296°
2026-04-21 12:12 40.50657 10.59016 13010 ft 322 kts 296°
2026-04-21 12:12 40.51596 10.56392 12620 ft 317 kts 296°
2026-04-21 12:13 40.52523 10.53801 12221 ft 306 kts 296°
2026-04-21 12:13 40.53411 10.51322 11829 ft 297 kts 296°
2026-04-21 12:13 40.54271 10.48923 11452 ft 289 kts 296°
2026-04-21 12:13 40.55118 10.46557 11088 ft 281 kts 295°
2026-04-21 12:14 40.55941 10.44260 10725 ft 274 kts 295°
2026-04-21 12:14 40.56733 10.42050 10375 ft 268 kts 295°
2026-04-21 12:14 40.57515 10.39869 10037 ft 261 kts 295°
2026-04-21 12:14 40.58288 10.37717 9707 ft 256 kts 295°
2026-04-21 12:15 40.59047 10.35601 9385 ft 255 kts 295°
2026-04-21 12:15 40.59802 10.33494 9074 ft 257 kts 295°
2026-04-21 12:15 40.60560 10.31384 8776 ft 258 kts 294°
2026-04-21 12:15 40.61327 10.29248 8471 ft 259 kts 294°
2026-04-21 12:16 40.62101 10.27095 8163 ft 259 kts 294°
2026-04-21 12:16 40.62867 10.24965 7852 ft 257 kts 294°
2026-04-21 12:16 40.63622 10.22864 7544 ft 256 kts 295°
2026-04-21 12:16 40.64380 10.20755 7237 ft 255 kts 295°
2026-04-21 12:17 40.65144 10.18633 6928 ft 255 kts 295°
2026-04-21 12:17 40.65896 10.16543 6624 ft 255 kts 295°
2026-04-21 12:17 40.66661 10.14423 6318 ft 255 kts 295°
2026-04-21 12:17 40.67419 10.12320 6015 ft 254 kts 295°
2026-04-21 12:18 40.68169 10.10241 5720 ft 256 kts 295°
2026-04-21 12:18 40.69070 10.08203 5536 ft 258 kts 311°
2026-04-21 12:18 40.70488 10.06756 5459 ft 262 kts 326°
2026-04-21 12:18 40.72022 10.05422 5355 ft 265 kts 325°
2026-04-21 12:19 40.73568 10.04074 5243 ft 265 kts 324°
2026-04-21 12:19 40.75087 10.02740 5129 ft 264 kts 324°
2026-04-21 12:19 40.76625 10.01382 5012 ft 263 kts 324°
2026-04-21 12:19 40.78138 10.00037 4892 ft 262 kts 324°
2026-04-21 12:20 40.79652 9.98685 4776 ft 262 kts 323°
2026-04-21 12:20 40.81165 9.97331 4665 ft 261 kts 323°
2026-04-21 12:20 40.82664 9.95984 4545 ft 258 kts 323°
2026-04-21 12:20 40.84116 9.94676 4416 ft 251 kts 323°
2026-04-21 12:21 40.85534 9.93398 4295 ft 247 kts 323°
2026-04-21 12:21 40.86966 9.92103 4181 ft 247 kts 324°
2026-04-21 12:21 40.88378 9.90827 4077 ft 248 kts 323°
2026-04-21 12:21 40.89814 9.89527 3974 ft 249 kts 323°
2026-04-21 12:22 40.91246 9.88230 3875 ft 248 kts 323°
2026-04-21 12:22 40.92660 9.86948 3765 ft 247 kts 323°
2026-04-21 12:22 40.94084 9.85656 3646 ft 247 kts 323°
2026-04-21 12:22 40.95501 9.84369 3548 ft 247 kts 323°
2026-04-21 12:23 40.96904 9.83096 3435 ft 247 kts 323°
2026-04-21 12:23 40.98329 9.81801 3332 ft 247 kts 323°
2026-04-21 12:23 40.99733 9.80525 3229 ft 246 kts 323°
2026-04-21 12:23 41.01137 9.79211 3106 ft 244 kts 313°
2026-04-21 12:24 41.01951 9.77299 3026 ft 240 kts 282°
2026-04-21 12:24 41.02043 9.75127 3003 ft 241 kts 255°
2026-04-21 12:24 41.01206 9.73240 3003 ft 235 kts 235°
2026-04-21 12:24 41.00263 9.71569 2939 ft 219 kts 236°
2026-04-21 12:25 40.99400 9.70015 2983 ft 199 kts 238°
2026-04-21 12:25 40.98633 9.68515 2785 ft 195 kts 238°
2026-04-21 12:25 40.97887 9.67094 2540 ft 180 kts 238°
2026-04-21 12:25 40.97228 9.65828 2302 ft 160 kts 238°
2026-04-21 12:26 40.96616 9.64654 2043 ft 151 kts 238°
2026-04-21 12:26 40.96016 9.63501 1837 ft 154 kts 238°
2026-04-21 12:26 40.95422 9.62367 1629 ft 146 kts 238°
2026-04-21 12:26 40.94859 9.61293 1430 ft 140 kts 238°
2026-04-21 12:27 40.94313 9.60251 1257 ft 135 kts 237°
2026-04-21 12:27 40.93792 9.59244 1079 ft 130 kts 237°
2026-04-21 12:27 40.93281 9.58268 924 ft 131 kts 237°
2026-04-21 12:27 40.92756 9.57264 773 ft 134 kts 237°
2026-04-21 12:28 40.92232 9.56254 648 ft 133 kts 236°
2026-04-21 12:28 40.91691 9.55247 482 ft 136 kts 236°
2026-04-21 12:28 40.91150 9.54220 281 ft 136 kts 236°
2026-04-21 12:28 40.90609 9.53197 89 ft 134 kts 235°
2026-04-21 12:29 40.90126 9.52270 50 ft 85 kts 236°
2026-04-21 12:29 40.90052 9.52033 50 ft 11 kts 335°
2026-04-21 12:29 40.90129 9.52025 49 ft 15 kts 337°
2026-04-21 12:29 40.90181 9.51842 50 ft 28 kts 281°
2026-04-21 12:30 40.90257 9.51714 50 ft 0 kts 322°